Skip Page Navigation
NASA JPL Caltech
NASA Logo - Jet Propulsion Laboratory + View the NASA Portal
+ Center for Near-Earth Object Studies
JPL Home Earth Solar System Stars & Galaxies Technology
JPL Solar System Dynamics
BODIES ORBITS EPHEMERIDES TOOLS PHYSICAL DATA DISCOVERY FAQ SITE MAP
JPL Small-Body Database Browser
Search: [ help ]  
233344 (2006 DF19)
Classification: Main-belt Asteroid          SPK-ID: 2233344
Ephemeris | Orbit Diagram | Orbital Elements | Mission Design | Physical Parameters | Discovery Circumstances ]

[ show orbit diagram ]
Orbital Elements at Epoch 2459000.5 (2020-May-31.0) TDB
Reference: JPL 14 (heliocentric ecliptic J2000)
 Element Value Uncertainty (1-sigma)   Units 
e .0422022664023808 4.0443e-08  
a 2.700389056263692 2.1726e-08 au
q 2.586426517921178 1.1322e-07 au
i 3.287308744311552 4.6663e-06 deg
node 87.23385681915465 0.00011028 deg
peri 200.8131479490729 0.00013976 deg
M 306.7358202490629 8.7183e-05 deg
tp 2459240.311871557924
(2021-Jan-25.81187156)
0.00039238 TDB
period 1620.831751555019
4.44
1.9561e-05
5.356e-08
d
yr
n .2221081859080176 2.6805e-09 deg/d
Q 2.814351594606206 2.2643e-08 au
  Orbit Determination Parameters
   # obs. used (total)      242  
   data-arc span      8958 days (24.53 yr)  
   first obs. used      1995-10-18  
   last obs. used      2020-04-27  
   planetary ephem.      DE431  
   SB-pert. ephem.      SB431-N16  
   condition code      0  
   norm. resid. RMS      .54504  
   source      ORB  
   producer      Otto Matic  
   solution date      2020-May-21 11:09:34  

Additional Information
 Earth MOID = 1.57036 au 
 Jupiter MOID = 2.24202 au 
 T_jup = 3.364 
[ show covariance matrix ]

Ephemeris | Orbit Diagram | Orbital Elements | Mission Design | Physical Parameters | Discovery Circumstances ]

Physical Parameter Table
Parameter Symbol Value Units Sigma Reference Notes
absolute magnitude H 16.4   n/a MPO427342  

233344 (2006 DF19)          Discovered 2006-Feb-20 by Spacewatch at Kitt Peak
Reference: 20100228/Numbers.arcLast Updated: 2010-03-03

Alternate Designations
 2006 DF19 = 1995 UB55 
Ephemeris | Orbit Diagram | Orbital Elements | Mission Design | Physical Parameters | Discovery Circumstances ]
ABOUT SSD CREDITS/AWARDS PRIVACY/COPYRIGHT GLOSSARY LINKS
FirstGov 2020-Aug-09 15:58 UT
(server date/time)  
NASA Home Page
Site Manager:   Ryan S. Park
Webmaster  Alan B. Chamberlin